Weather in Savino

Russia / Novgorod Oblast     58°32′41″N   31°26′45″E
temp.,
°C
wind,
m/s
gust,
m/s
humid.,
%
clouds,
%
prec.,
mm/h
press.,
hPa
HPBL,
m
3 march, wed
wed300:00−1wnw410881 0.0 1019393
03:00−1wnw411928 0.0 1019385
06:00−2w4109415 0.0 1017395
09:00−1w5108852 0.0 1017584
12:00+1w5982100 0.0 1016701
15:00+3w51073100 0.0 10131098
18:00+2wsw41278100 0.0 1009845
21:00+2w61491100 0.0 1006826
4 march, thu
thu400:00+2wnw61396100 0.3 1003847
03:000nw41185100 0.8 1004712
06:00−3wnw410820 0.0 1003488
09:00−3wnw38820 0.0 1004464
12:000nw25670 0.0 1003763
15:00+1nw356315 0.0 10031123
18:00−2nw267658 0.3 1003264
21:00−3nnw598177 0.6 1004832
5 march, fri
fri500:00−5nnw487994 0.0 1005708
03:00−6nw388385 0.0 1007572
06:00−6nw378397 0.0 1008689
09:00−6nw467998 0.1 1009760
12:00−5nw3572100 0.1 1010787
15:00−4nw3567100 0.1 1012993
18:00−5nnw3676100 0.1 1013745
21:00−6n3676100 0.1 1016757
6 march, sat
sat600:00−8nnw25765 0.0 1017259
03:00−9wnw23883 0.0 1018104
06:00−9wnw25890 0.0 1018194
09:00−8w358438 0.0 1018293
12:00−5wsw357157 0.0 1017746
15:00−3sw586072 0.0 10141326
18:00−3sw61262100 0.0 10091175
21:00−3sw81693100 1.3 10031252
7 march, sun
sun700:00−2wsw91693100 2.1 9971226
03:00−1wsw71589100 3.5 9931028
06:00−6nw71763100 2.8 9921592
09:00−8wsw488565 2.9 994598
12:00−6wnw61270100 1.2 9921793
15:00−6wnw71279100 1.5 9921451
18:00−5wnw71392100 0.9 9941139
21:00−9nnw4118285 1.1 998683